Regional Weather Roundup
Issued by NWS

Home | Current Version | Previous Version | Text Only | Print | Product List | Glossary Off
Versions: 1 2 3 4 5 6 7 8 9 10 11 12 13 14 15 16 17 18 19 20 21 22 23 24 25 26 27 28 29 30 31 32 33 34 35 36 37 38 39 40 41 42 43 44 45 46 47 48 49 50

749
ASUS43 KIND 170800
RWRIN

WEATHER ROUNDUP FOR INDIANA
NATIONAL WEATHER SERVICE INDIANAPOLIS IN
400 AM EDT TUE OCT 17 2017

NOTE: "FAIR" INDICATES FEW OR NO CLOUDS BELOW 12,000 FEET WITH NO
SIGNIFICANT WEATHER AND/OR OBSTRUCTIONS TO VISIBILITY.

* - STATION DOES NOT REPORT WEATHER SUCH AS PRECIPITATION OR FOG.

+ - STATION NOT QUALITY CONTROLLED BY THE NATIONAL WEATHER SERVICE.
    USE DATA WITH CAUTION...ESPECIALLY DEWPOINT AND RELATIVE
    HUMIDITY OBSERVATIONS.

INZ001>003-010>013-019-020-170900-
NORTHWEST INDIANA

CITY           SKY/WX    TMP DP  RH WIND       PRES   REMARKS
MICHIGAN CITY+ CLEAR     46  37  71 S7        30.24S
MONTICELLO +   CLEAR     43  37  79 S6        30.27S
RENSSELAER +   CLEAR     43  36  75 S3        30.26S

$$

LMZ046-743>745-170900-
SOUTHERN LAKE MICHIGAN

STATION/POSITION TIME  TEMP    WIND        PRES    WAVE
                       AIR SEA DIR/SP/G            HT
                 (UTC) (F)     (DEG/KT/KT) (MB)    (FT)
BURNS HARBOR     0740   51     190/ 12/ 15 1023.7S
5NW MICH CITY    0740   54 57  210/ 14/ 17   N/A     2

$$

INZ004-005-014>016-021>024-170900-
NORTH CENTRAL INDIANA

CITY           SKY/WX    TMP DP  RH WIND       PRES   REMARKS
GOSHEN         CLEAR     44  37  76 SW8       30.24F
SOUTH BEND     CLEAR     43  39  86 SW9       30.24S

$$

INZ006>009-017-018-025>027-170900-
NORTHEAST INDIANA

CITY           SKY/WX    TMP DP  RH WIND       PRES   REMARKS
FORT WAYNE     PTCLDY    40  36  86 SW7       30.27S
KENDALLVILLE + CLEAR     45  38  78 SW7       30.25S

$$

INZ028-029-035-036-043>045-051>053-170900-
WEST CENTRAL INDIANA

CITY           SKY/WX    TMP DP  RH WIND       PRES   REMARKS
GREENCASTLE +  CLEAR     39  37  93 CALM      30.31S
LAFAYETTE      CLEAR     43  39  86 CALM      30.28S
TERRE HAUTE    CLEAR     39  37  92 CALM      30.31S

$$

INZ030>032-037>040-046>048-054>057-064-065-170900-
CENTRAL INDIANA

CITY           SKY/WX    TMP DP  RH WIND       PRES   REMARKS
INDIANAPOLIS   CLEAR     44  38  79 SW5       30.30S
-EAGLE CREEK   CLEAR     44  38  79 CALM      30.29S
KOKOMO +       CLEAR     45  38  76 SW7       30.29S
MT COMFORT *+  CLEAR     41  41 100 S5        30.30S
SHELBYVILLE    CLEAR     41  37  86 S3        30.30S

$$

INZ033-034-041-042-049-050-058-059-170900-
EAST CENTRAL INDIANA

CITY           SKY/WX    TMP DP  RH WIND       PRES   REMARKS
MUNCIE         CLEAR     46  37  71 S5        30.29S
RICHMOND +     CLEAR     37  36  93 CALM      30.31S FOG

$$

INZ060-061-067>069-081>083-085>088-170900-
SOUTHWEST INDIANA

CITY           SKY/WX    TMP DP  RH WIND       PRES   REMARKS
EVANSVILLE     CLEAR     42  40  92 CALM      30.34R
HUNTINGBURG +  CLEAR     40  39  97 CALM      30.33S

$$

INZ062-063-066-070>080-084-089>092-170900-
SOUTH CENTRAL AND SOUTHEAST INDIANA

CITY           SKY/WX    TMP DP  RH WIND       PRES   REMARKS
BLOOMINGTON    CLEAR     39  36  89 CALM      30.31S
MADISON *+     CLEAR     39  37  93 CALM      30.34S
SEYMOUR +      CLEAR     39  37  93 CALM      30.33S

$$





USA.gov is the U.S. government's official web portal to all federal, state and local government web resources and services.